TimeEDT,TemperatureF,Dew PointF,Humidity,Sea Level PressureIn,VisibilityMPH,Wind Direction,Wind SpeedMPH,Gust SpeedMPH,PrecipitationIn,Events,Conditions,WindDirDegrees,DateUTC
12:52 AM,57.0,54.0,89,30.19,5.0,Calm,Calm,-,N/A,,Scattered Clouds,0,2013-10-31 04:52:00
1:52 AM,55.9,53.1,90,30.17,4.0,NE,3.5,-,N/A,,Mostly Cloudy,50,2013-10-31 05:52:00
2:52 AM,57.0,54.0,89,30.18,5.0,Calm,Calm,-,N/A,,Overcast,0,2013-10-31 06:52:00
3:52 AM,57.0,54.0,89,30.16,5.0,Calm,Calm,-,N/A,,Overcast,0,2013-10-31 07:52:00
4:52 AM,57.0,54.0,89,30.15,5.0,Calm,Calm,-,N/A,,Overcast,0,2013-10-31 08:52:00
5:52 AM,57.0,54.0,89,30.12,5.0,NE,5.8,-,N/A,,Overcast,50,2013-10-31 09:52:00
6:52 AM,57.0,54.0,89,30.13,5.0,East,3.5,-,N/A,,Overcast,100,2013-10-31 10:52:00
7:52 AM,57.0,54.0,89,30.12,4.0,East,3.5,-,N/A,,Overcast,90,2013-10-31 11:52:00
8:52 AM,60.1,55.9,86,30.12,5.0,South,4.6,-,N/A,,Overcast,180,2013-10-31 12:52:00
9:52 AM,62.1,57.0,84,30.12,7.0,South,8.1,-,N/A,,Overcast,190,2013-10-31 13:52:00
10:52 AM,62.1,55.9,80,30.09,7.0,South,10.4,-,N/A,,Overcast,180,2013-10-31 14:52:00
11:52 AM,63.0,57.0,81,30.06,9.0,South,9.2,-,N/A,,Overcast,190,2013-10-31 15:52:00
12:52 PM,66.0,57.9,75,30.04,10.0,South,10.4,-,N/A,,Overcast,180,2013-10-31 16:52:00
1:52 PM,66.0,57.9,75,30.01,10.0,South,10.4,-,N/A,,Overcast,180,2013-10-31 17:52:00
2:52 PM,66.9,57.9,73,29.98,10.0,South,9.2,-,N/A,,Overcast,190,2013-10-31 18:52:00
3:52 PM,66.9,57.0,70,29.95,10.0,South,9.2,-,N/A,,Overcast,190,2013-10-31 19:52:00
4:52 PM,68.0,57.0,68,29.94,10.0,South,11.5,-,N/A,,Overcast,190,2013-10-31 20:52:00
5:52 PM,66.9,57.0,70,29.92,10.0,South,12.7,-,N/A,,Overcast,180,2013-10-31 21:52:00
6:52 PM,64.9,57.0,75,29.92,10.0,South,10.4,-,N/A,,Overcast,190,2013-10-31 22:52:00
7:52 PM,64.0,57.0,78,29.91,10.0,South,9.2,-,0.00,Rain,Light Rain,180,2013-10-31 23:52:00
8:52 PM,63.0,57.9,84,29.89,10.0,South,8.1,-,0.00,Rain,Light Rain,190,2013-11-01 00:52:00
9:52 PM,64.0,57.9,80,29.87,10.0,South,10.4,-,0.00,,Overcast,190,2013-11-01 01:52:00
10:52 PM,66.9,57.9,73,29.85,10.0,South,13.8,-,N/A,,Overcast,190,2013-11-01 02:52:00
11:52 PM,64.9,55.9,73,29.80,10.0,South,15.0,-,N/A,,Overcast,190,2013-11-01 03:52:00